📊 Raw Sensor Data

Showing records 44951 to 44975 of 85,045 total

ID Distance (ft) Battery V Battery A Int Temp (°F) Int Humid (%) Ext Temp (°F) Solar V RSSI SNR Time Stamp
40107 16.0 3.90 -5 50 42 53 0.10 -68 8 05/09/2025 04:45 AM
40106 -- 3.90 -5 50 42 54 0.00 -68 8 05/09/2025 04:30 AM
40105 -- 3.91 -5 50 42 54 0.00 -69 8 05/09/2025 04:00 AM
40104 -- 3.96 -5 50 43 54 0.00 -69 8 05/09/2025 03:45 AM
40103 16.0 3.91 -14 49 43 52 0.00 -68 8 05/09/2025 03:30 AM
40102 16.0 3.96 -5 50 43 51 0.00 -68 8 05/09/2025 03:15 AM
40101 -- 3.91 -5 50 43 52 0.00 -68 8 05/09/2025 03:00 AM
40100 16.0 3.91 -5 49 43 53 0.00 -68 8 05/09/2025 02:45 AM
40099 -- 3.91 -5 50 43 52 0.00 -68 8 05/09/2025 02:30 AM
40098 15.9 3.91 -5 50 43 51 0.00 -69 8 05/09/2025 02:15 AM
40097 16.0 3.91 -5 51 43 54 0.00 -68 8 05/09/2025 02:00 AM
40096 16.0 3.91 -5 51 44 54 0.00 -69 8 05/09/2025 01:45 AM
40095 15.9 3.91 -5 51 44 53 0.10 -69 8 05/09/2025 01:30 AM
40094 16.0 3.91 -5 52 45 53 0.10 -69 8 05/09/2025 01:15 AM
40093 16.0 3.97 -5 53 45 53 0.00 -69 8 05/09/2025 01:00 AM
40092 16.0 3.91 -5 54 45 54 0.10 -70 8 05/09/2025 12:45 AM
40091 -- 3.92 -5 56 45 55 0.00 -69 8 05/09/2025 12:30 AM
40090 16.0 3.97 -5 59 44 60 0.00 -70 8 05/09/2025 12:15 AM
40089 15.9 3.97 -5 59 44 62 0.00 -69 8 05/09/2025 12:00 AM
40088 16.0 3.92 -5 60 44 63 0.00 -69 8 05/08/2025 11:45 PM
40087 15.9 3.92 -5 61 44 62 0.00 -69 8 05/08/2025 11:30 PM
40086 -- 3.92 -5 61 45 63 0.00 -68 8 05/08/2025 11:15 PM
40085 15.9 3.92 -18 62 45 63 0.00 -68 9 05/08/2025 11:00 PM
40084 15.8 3.92 -5 63 45 64 0.00 -69 8 05/08/2025 10:45 PM
40083 15.9 3.92 -5 63 45 65 0.00 -68 8 05/08/2025 10:30 PM